TF3VP-10 Weather Reports


time (UTC)temp
C
wind
direction
speed
KPH
gust
KPH
rain 1hr
cm
rain 24hr
cm
rain mn
cm
humidity
%
barometer
mb
20260503005047 5 42 1.6 3.2 0.00 0.00 0.00 65 1026.3
20260503003547 5 42 1.6 3.2 0.00 0.00 0.00 65 1026.3
20260503002048 5 42 1.6 3.2 0.00 0.00 0.00 65 1026.3
20260503000548 5 42 1.6 3.2 0.00 0.00 0.00 65 1026.3
20260502235048 5 42 1.6 3.2 0.00 0.00 0.00 65 1026.3
20260502233547 5 42 1.6 3.2 0.00 0.00 0.00 65 1026.3
20260502232047 5 42 1.6 3.2 0.00 0.00 0.00 65 1026.3
20260502230548 5 42 1.6 3.2 0.00 0.00 0.00 65 1026.3
20260502225048 5 42 1.6 3.2 0.00 0.00 0.00 65 1026.3
20260502223548 5 42 1.6 3.2 0.00 0.00 0.00 65 1026.3
20260502222048 5 42 1.6 3.2 0.00 0.00 0.00 65 1026.3
20260502220548 5 42 1.6 3.2 0.00 0.00 0.00 65 1026.3
20260502215047 5 10 4.8 8.0 0.00 0.00 0.00 64 1026.4
20260502213547 5 46 4.8 8.0 0.00 0.00 0.00 63 1026.6
20260502212047 5 358 6.4 8.0 0.00 0.00 0.00 64 1026.6
20260502210547 6 3 3.2 3.2 0.00 0.00 0.00 64 1026.7
20260502205047 6 352 6.4 8.0 0.00 0.00 0.00 64 1026.6
20260502203547 6 333 6.4 8.0 0.00 0.00 0.00 63 1026.7
20260502202047 7 351 14.5 20.9 0.00 0.00 0.00 62 1026.7
20260502200547 7 324 0.0 3.2 0.00 0.00 0.00 62 1026.8
20260502195047 7 279 8.0 8.0 0.00 0.00 0.00 62 1026.8
20260502193548 7 245 9.7 12.9 0.00 0.00 0.00 61 1026.8
20260502192047 7 304 3.2 3.2 0.00 0.00 0.00 62 1027.1
20260502190547 7 310 11.3 16.1 0.00 0.00 0.00 62 1027.1
20260502185048 7 262 9.7 12.9 0.00 0.00 0.00 62 1027.5
20260502183547 7 265 16.1 20.9 0.00 0.00 0.00 59 1027.6
20260502182047 8 251 8.0 16.1 0.00 0.00 0.00 59 1027.7
20260502180547 8 315 4.8 8.0 0.00 0.00 0.00 57 1027.9
20260502163547 7 267 8.0 12.9 0.00 0.00 0.00 58 1028.6
20260502162047 7 303 17.7 24.1 0.00 0.00 0.00 58 1028.9
20260502160547 7 294 17.7 24.1 0.00 0.00 0.00 57 1029.0
20260502152047 7 297 12.9 16.1 0.00 0.00 0.00 58 1029.4
20260502150547 7 244 17.7 24.1 0.00 0.00 0.00 55 1029.8
20260502130547 -3 302 0.0 0.0 0.00 0.00 0.00 63 1033.9
20260502123547 -3 302 0.0 0.0 0.00 0.00 0.00 63 1033.9
20260502122047 -3 302 0.0 0.0 0.00 0.00 0.00 63 1033.9
20260502120547 -3 302 0.0 0.0 0.00 0.00 0.00 63 1033.9
20260502115047 -3 302 0.0 0.0 0.00 0.00 0.00 63 1033.9
20260502113548 -3 302 0.0 0.0 0.00 0.00 0.00 63 1033.9
20260502112048 -3 302 0.0 0.0 0.00 0.00 0.00 63 1033.9
20260502110548 -3 302 0.0 0.0 0.00 0.00 0.00 63 1033.9
20260502105047 -3 302 0.0 0.0 0.00 0.00 0.00 63 1033.9
20260502103548 -3 302 0.0 0.0 0.00 0.00 0.00 63 1033.9
20260502102047 -3 302 0.0 0.0 0.00 0.00 0.00 63 1033.9
20260502100547 -3 302 0.0 0.0 0.00 0.00 0.00 63 1033.9
20260502090548 -3 302 0.0 0.0 0.00 0.00 0.00 63 1033.9
20260502070547 -3 302 0.0 0.0 0.00 0.00 0.00 63 1033.9
20260502065047 -3 302 0.0 0.0 0.00 0.00 0.00 63 1033.9
20260502063547 -3 302 0.0 0.0 0.00 0.00 0.00 63 1033.9
20260502062047 -3 302 0.0 0.0 0.00 0.00 0.00 63 1033.9
20260502060548 -3 302 0.0 0.0 0.00 0.00 0.00 63 1033.9
20260502055047 0 18 1.6 3.2 0.00 0.00 0.00 53 1034.5
20260502053547 0 18 1.6 3.2 0.00 0.00 0.00 53 1034.5
20260502052047 0 18 1.6 3.2 0.00 0.00 0.00 53 1034.5
20260502050547 0 18 1.6 3.2 0.00 0.00 0.00 53 1034.5
20260502045047 0 18 1.6 3.2 0.00 0.00 0.00 53 1034.5
20260502043547 0 18 1.6 3.2 0.00 0.00 0.00 53 1034.5
20260502042047 0 18 1.6 3.2 0.00 0.00 0.00 53 1034.5
20260502040547 0 18 1.6 3.2 0.00 0.00 0.00 53 1034.5
20260502035047 0 18 1.6 3.2 0.00 0.00 0.00 53 1034.5
20260502033547 0 18 1.6 3.2 0.00 0.00 0.00 53 1034.5
20260502032047 0 18 1.6 3.2 0.00 0.00 0.00 53 1034.5
20260502030547 0 18 1.6 3.2 0.00 0.00 0.00 53 1034.5
20260502025047 0 18 1.6 3.2 0.00 0.00 0.00 53 1034.5
20260502023547 0 18 1.6 3.2 0.00 0.00 0.00 53 1034.5
20260502022049 0 18 1.6 3.2 0.00 0.00 0.00 53 1034.5
20260502020548 0 18 1.6 3.2 0.00 0.00 0.00 53 1034.5
20260502015048 0 18 1.6 3.2 0.00 0.00 0.00 53 1034.5
20260502013547 0 18 1.6 3.2 0.00 0.00 0.00 53 1034.5
20260502012047 0 18 1.6 3.2 0.00 0.00 0.00 53 1034.5
20260502010547 0 18 1.6 3.2 0.00 0.00 0.00 53 1034.5